Location: ????????
(54.9045°N, 39.1041°E)
Time: 15:12:59
(UTC+00:00)

NOAA 11 - Visible Passes

Search period start: 19 July 2024 00:00
Search period end: 29 July 2024 00:00
Orbit: 832 x 849 km, 98.5° (Epoch: 18 July)

Date Brightness Start Highest point End Pass type
(mag) Time Alt. Az. Time Alt. Az. Time Alt. Az.
19 Jul 6.6 23:11:11 10° NE 23:14:02 14° E 23:16:53 10° ESE visible
20 Jul 6.8 22:57:34 10° ENE 22:58:55 11° E 23:00:16 10° E visible
22 Jul 5.2 00:20:34 10° NNE 00:25:46 44° E 00:30:56 10° S visible
23 Jul 5.6 00:05:51 10° NNE 00:10:49 35° E 00:15:45 10° SSE visible
23 Jul 5.9 23:51:11 10° NNE 23:55:50 28° E 00:00:25 10° SSE visible
24 Jul 6.3 23:36:37 10° NE 23:40:48 22° E 23:44:58 10° SE visible
25 Jul 6.5 23:22:11 10° NE 23:25:45 18° E 23:29:18 10° SE visible
26 Jul 6.6 23:07:59 10° NE 23:10:40 14° E 23:13:19 10° ESE visible
27 Jul 6.9 22:54:41 10° ENE 22:55:32 10° E 22:56:22 10° E visible
28 Jul 4.9 00:32:00 10° NNE 00:37:20 54° E 00:42:39 10° S visible
